Weather History for KDXR - November, 2012

Change the Weather History Date:

Sunday, November 18, 2012

  Actual Average Record
Temperature  
Mean Temperature 36 °F -  
Max Temperature 48 °F 49 °F 70 °F (1953)
Min Temperature 23 °F 30 °F 16 °F (1959)
Degree Days  
Heating Degree Days 30    
Moisture  
Dew Point 26 °F    
Average Humidity 74    
Maximum Humidity 92    
Minimum Humidity 47    
Precipitation  
Precipitation 0.00 in - - ()
Sea Level Pressure  
Sea Level Pressure 30.66 in    
Wind  
Wind Speed 1 mph (ENE)    
Max Wind Speed 7 mph    
Max Gust Speed -    
Visibility 9 miles    
Events      
Averages and records for this station are not official NWS values.
T = Trace of Precipitation, MM = Missing Value Source: NWS Daily Summary

Daily Weather History Graph

Daily Weather History Graph

Search for Another Location

Airport or City:

Trip Planner

Search our weather history database for the weather conditions in past years. The results will help you decide how hot, cold, wet, or windy it might be!

Date:

Astronomy

Nov. 18, 2012 Rise Set
Actual Time 6:46 AM EST 4:31 PM EST
Civil Twilight 6:16 AM EST 5:01 PM EST
Nautical Twilight 5:42 AM EST 5:35 PM EST
Astronomical Twilight 5:09 AM EST 6:08 PM EST
Moon 11:10 AM EST (11/18) 9:49 PM EST (11/18)
Length of Visible Light 10h 45m
Length of Day
9h 45m
Waxing Crescent, 30% of the Moon is Illuminated
Nov 18
Waxing Crescent
Nov 20
First Quarter
Nov 28
Full
Dec 6
Last Quarter
Dec 13
New

Hourly Weather History & Observations

Time (EST) Temp. Windchill Dew Point Humidity Pressure Visibility Wind Dir Wind Speed Gust Speed Precip Events Conditions
12:53 AM 26.1 °F - 24.1 °F 92% 30.66 in 7.0 mi Calm Calm - N/A   Clear
1:53 AM 25.0 °F - 21.9 °F 88% 30.67 in 7.0 mi Calm Calm - N/A   Clear
2:53 AM 24.1 °F - 21.0 °F 88% 30.66 in 8.0 mi Calm Calm - N/A   Clear
3:53 AM 25.0 °F - 21.9 °F 88% 30.66 in 6.0 mi Calm Calm - N/A   Clear
4:53 AM 24.1 °F - 21.0 °F 88% 30.68 in 7.0 mi Calm Calm - N/A   Clear
5:53 AM 25.0 °F - 21.9 °F 88% 30.69 in 7.0 mi Calm Calm - N/A   Clear
6:53 AM 23.0 °F - 21.0 °F 92% 30.70 in 6.0 mi Calm Calm - N/A   Clear
7:53 AM 30.0 °F - 26.1 °F 85% 30.70 in 5.0 mi Calm Calm - N/A   Clear
8:53 AM 37.0 °F - 27.0 °F 67% 30.70 in 10.0 mi Calm Calm - N/A   Clear
9:53 AM 39.0 °F 34.0 °F 26.1 °F 60% 30.71 in 10.0 mi ENE 6.9 mph - N/A   Clear
10:53 AM 43.0 °F 39.5 °F 28.9 °F 58% 30.70 in 10.0 mi ENE 5.8 mph - N/A   Clear
11:53 AM 46.0 °F 42.5 °F 30.0 °F 54% 30.67 in 10.0 mi NE 6.9 mph - N/A   Clear
12:53 PM 46.9 °F - 30.0 °F 52% 30.64 in 10.0 mi Calm Calm - N/A   Clear
1:53 PM 48.0 °F - 28.9 °F 48% 30.63 in 10.0 mi ENE 4.6 mph - N/A   Clear
2:53 PM 46.9 °F - 28.9 °F 50% 30.63 in 10.0 mi East 5.8 mph - N/A   Clear
3:53 PM 46.0 °F 42.5 °F 27.0 °F 47% 30.63 in 10.0 mi ENE 6.9 mph - N/A   Clear
4:53 PM 41.0 °F 38.0 °F 28.0 °F 60% 30.63 in 10.0 mi East 4.6 mph - N/A   Clear
5:53 PM 35.1 °F 32.2 °F 27.0 °F 72% 30.63 in 10.0 mi WSW 3.5 mph - N/A   Clear
6:53 PM 33.1 °F - 27.0 °F 78% 30.63 in 10.0 mi Calm Calm - N/A   Clear
7:53 PM 30.9 °F 27.5 °F 26.1 °F 82% 30.64 in 10.0 mi WSW 3.5 mph - N/A   Clear
8:53 PM 28.9 °F - 25.0 °F 85% 30.63 in 9.0 mi Calm Calm - N/A   Clear
9:53 PM 28.0 °F - 25.0 °F 88% 30.62 in 9.0 mi Calm Calm - N/A   Clear
10:53 PM 28.0 °F - 25.0 °F 88% 30.62 in 8.0 mi Calm Calm - N/A   Clear
11:53 PM 27.0 °F - 24.1 °F 89% 30.61 in 8.0 mi Calm Calm - N/A   Clear